Back to catalog

COSMOS 2257

AliveMilitaryPO
NORAD 22692·PAYLOAD·🇷🇺 Russia

Launched Jun 24, 1993 from Plesetsk Cosmodrome

Loading…

Next Passes (next 24 hours)

TLE

FreshSource: Space-Track

Epoch: Sep 14, 2026, 04:13 UTC

1 22692U 93038F   26257.17624015  .00000028  00000-0  99197-4 0  9991
2 22692  82.5824 181.8552 0008613 143.1493 217.0191 12.62261080531014

Track COSMOS 2257 in real time with AllMySat

Download on the App Store